Location: Iesi
(43.5167°N, 13.2333°E)
Time: 03:50:00
(UTC+00:00)

Cosmos 2251 Rocket - Visible Passes

Search period start: 26 November 2020 00:00
Search period end: 06 December 2020 00:00
Orbit: 765 x 791 km, 74.0° (Epoch: 25 November)

Date Brightness Start Highest point End Pass type
(mag) Time Alt. Az. Time Alt. Az. Time Alt. Az.
01 Dec 6.1 05:32:41 10° NNE 05:34:35 12° NE 05:36:28 10° ENE visible
04 Dec 5.7 05:31:25 10° N 05:35:23 21° NE 05:39:18 10° ESE visible
05 Dec 6.0 04:58:14 10° NNE 05:01:02 14° NE 05:03:50 10° E visible
